[[{"header":{"parameterUnit":"m.s-1","parameterCategory":1,"la1":30.2991,"la2":30.254,"lo1":-89.0895,"lo2":-89.0444,"dy":0.0017,"dx":0.0017,"nx":28,"ny":28,"refTime":"2025-06-09T03:00:00:Z","depth":0,"parameterNumber":2,"parameterNumberName":"U-component_of_WINDS"},"data":[0,0,0,0,0,0,0,0,0,0,0,0,0,0,0,0,0,0,0,0,0,0,0,0,0,0,0,0,0,0,0,0,0,0,0,0,0,0,0,0,0,0,0,0,0,0,0,0,0,0,0,0,0,0,0,0,0,0,4.6567,4.6569,0,4.6686,4.6688,4.6689,4.6721,4.6721,4.672,4.6719,4.6842,4.6846,4.685,0,0,0,0,0,0,0,0,0,0,0,0,0,4.6369,4.6372,4.6567,4.6569,4.657,4.6686,4.6688,4.669,4.6722,4.6721,4.672,4.6719,4.6841,4.6845,4.685,0,0,0,0,0,0,0,0,0,0,0,0,0,4.6468,4.6373,4.6567,4.66,4.6604,4.6686,4.6688,4.669,4.6722,4.6721,4.672,4.6719,4.6839,4.6845,4.6851,4.6908,0,0,4.6869,4.6871,0,0,0,0,0,0,0,0,4.6462,4.6475,4.6594,4.6598,4.6603,4.6688,4.6663,4.6763,4.6722,4.6677,4.6719,4.6718,4.6792,4.6801,4.6826,4.6914,4.6919,4.6869,4.6873,4.6875,4.6877,0,0,0,0,0,0,0,4.6455,4.647,4.6614,4.6596,4.6601,4.661,4.6622,4.6682,4.6739,4.6681,4.6684,4.6697,4.6794,4.682,4.6829,4.6921,4.6869,4.6874,4.6878,4.688,4.7062,4.7063,0,0,0,0,0,0,4.6443,4.6464,4.6611,4.6618,4.6529,4.6614,4.6628,4.6662,4.6738,4.6749,4.6698,4.6698,4.6811,4.6822,4.6834,4.6906,4.6875,4.6881,4.6884,4.7061,4.7062,4.7064,0,0,0,0,0,0,4.6438,4.6455,4.6606,4.6542,4.6562,4.6618,4.6656,4.6665,4.6691,4.6751,4.6762,4.6714,4.681,4.6825,4.6889,4.6911,4.6883,4.6889,4.7059,4.7061,4.7063,4.705,0,0,0,0,0,0,4.6432,4.6454,4.6476,4.6542,4.6565,4.6659,4.6657,4.6668,4.6701,4.6703,4.6769,4.6779,4.6811,4.688,4.6895,4.6918,4.6893,4.7058,4.706,4.7063,4.7049,4.7052,4.7054,0,0,0,0,0,4.6425,4.6467,4.6477,4.6494,4.6594,4.666,4.6673,4.6708,4.6703,4.6725,4.6764,4.6777,4.6906,4.6887,4.6904,4.6929,4.7056,4.7059,4.7062,4.7048,4.7051,4.7054,0,0,0,0,0,0,4.6402,4.6477,4.6488,4.6553,4.66,4.6666,4.6695,4.671,4.676,4.676,4.6801,4.6816,4.6877,4.691,4.6887,4.6988,4.6982,4.6988,4.6965,4.6968,4.6971,4.6961,4.6898,0,0,0,0,0,4.6404,4.6452,4.6515,4.6566,4.6589,4.6638,4.6668,4.6691,4.6742,4.6762,4.6806,4.6855,4.6906,4.6939,4.699,4.7054,4.7069,4.708,4.7082,4.7084,4.7089,4.7125,4.7131,4.7074,4.7073,4.7073,0,0,4.6409,4.6456,4.6484,4.6562,4.6602,4.665,4.6655,4.6706,4.6742,4.677,4.6833,4.6867,4.6924,4.6989,4.7019,4.7017,4.7108,4.7088,4.7088,4.7093,4.7129,4.7134,4.7139,4.7075,4.7075,4.7075,0,0,4.6444,4.6484,4.6531,4.6571,4.663,4.6663,4.6674,4.6738,4.6761,4.6825,4.6847,4.6891,4.6979,4.7019,4.7051,4.7102,4.7116,4.7117,4.7129,4.7164,4.7169,4.7173,4.7191,4.7197,4.7122,4.7122,4.7122,0,4.6443,4.6517,4.6553,4.6604,4.6638,4.6665,4.6713,4.675,4.6823,4.6846,4.6843,4.6954,4.6995,4.7069,4.7081,4.7106,4.7121,4.7109,4.7165,4.717,4.7174,4.7192,4.7198,4.7122,4.7122,4.7122,4.7122,0,4.6512,4.6563,4.6594,4.6664,4.6702,4.6751,4.6795,4.6829,4.6849,4.6882,4.6947,4.6997,4.7058,4.7078,4.7098,4.7155,4.7152,4.7157,4.715,4.7179,4.7196,4.7203,4.7121,4.7121,4.7121,4.7121,0,0,4.6534,4.6624,4.6635,4.6667,4.6735,4.6776,4.6826,4.6886,4.6914,4.6964,4.7007,4.7082,4.7086,4.7122,4.7147,4.7178,4.7215,4.7179,4.7181,4.7184,4.7282,4.7277,4.7284,4.7225,4.7227,4.7228,4.7277,0,4.6577,4.6668,4.6703,4.6777,4.6824,4.6852,4.6896,4.6943,4.6975,4.702,4.7057,4.7108,4.7111,4.7133,4.7165,4.7204,4.7235,4.7201,4.7266,4.7268,4.725,4.7293,4.7289,4.7332,4.7284,4.7285,4.7286,0,4.6638,4.6689,4.6767,4.683,4.6851,4.689,4.6948,4.6991,4.7045,4.7067,4.7107,4.7131,4.7185,4.7176,4.7252,4.7227,4.7257,4.728,4.7283,4.7289,4.7278,4.7301,4.7347,4.7353,4.7297,4.7296,4.7295,0,4.6646,4.6734,4.6792,4.6819,4.6893,4.692,4.6952,4.7005,4.7039,4.709,4.7113,4.7169,4.72,4.7244,4.7282,4.7272,4.7355,4.7349,4.7374,4.7373,4.7389,4.7388,4.744,4.7409,4.7409,4.7409,4.7409,0,4.6689,4.6736,4.6796,4.6832,4.6886,4.6926,4.6978,4.7013,4.706,4.7103,4.7131,4.7171,4.7219,4.7266,4.7296,4.7354,4.7368,4.7387,4.7394,4.7384,4.7382,4.7403,4.7401,4.741,4.741,4.741,4.7409,0,4.6706,4.6749,4.6814,4.688,4.6897,4.6934,4.699,4.7026,4.706,4.7115,4.713,4.7183,4.724,4.7282,4.7355,4.7376,4.7437,4.7446,4.7419,4.7423,4.7445,4.7442,4.7513,4.7524,4.7486,4.7486,4.7486,0,4.6731,4.6768,4.6837,4.6868,4.69,4.695,4.6985,4.7026,4.7061,4.7126,4.7154,4.7213,4.7261,4.735,4.7396,4.7452,4.7461,4.7482,4.747,4.7458,4.7461,4.7458,4.7462,4.7483,4.7484,4.7484,4.7484,0,4.677,4.6789,4.6838,4.6895,4.6935,4.6982,4.7029,4.7053,4.7103,4.7141,4.7199,4.7237,4.7312,4.7369,4.743,4.7464,4.7482,4.7488,4.7496,4.7486,4.7469,4.7478,4.7423,4.7486,4.7485,4.7485,4.7485,4.7485,4.6791,4.6825,4.688,4.6933,4.6973,4.7017,4.7054,4.7093,4.7142,4.7205,4.7227,4.7287,4.7341,4.7424,4.7459,4.7507,4.7507,4.752,4.7523,4.7525,4.7524,4.7462,4.7518,4.7518,4.7518,4.7518,4.7518,0,4.6831,4.6868,4.6917,4.6982,4.7024,4.7038,4.7091,4.7126,4.7178,4.7226,4.7274,4.734,4.7397,4.7447,4.7505,4.7534,4.7544,4.7548,4.7546,4.7553,4.7521,4.7507,4.7539,4.7539,4.7539,4.7539,4.7539,4.7539,4.6857,4.6915,4.6941,4.702,4.7056,4.7114,4.7143,4.7184,4.7223,4.7296,4.7342,4.7375,4.7424,4.7487,4.7539,4.7553,4.7573,4.7574,4.759,4.7558,4.7555,4.7553,4.754,4.7579,4.7579,4.7619,4.7619,4.7619]},{"header":{"parameterUnit":"m.s-1","parameterCategory":1,"la1":30.2991,"la2":30.254,"lo1":-89.0895,"lo2":-89.0444,"dy":0.0017,"dx":0.0017,"nx":28,"ny":28,"refTime":"2025-06-09T03:00:00:Z","depth":0,"parameterNumber":3,"parameterNumberName":"V-component_of_WINDS"},"data":[0,0,0,0,0,0,0,0,0,0,0,0,0,0,0,0,0,0,0,0,0,0,0,0,0,0,0,0,0,0,0,0,0,0,0,0,0,0,0,0,0,0,0,0,0,0,0,0,0,0,0,0,0,0,0,0,0,0,2.1293,2.1293,0,2.1286,2.1286,2.1286,2.1273,2.1273,2.1273,2.1273,2.1265,2.1265,2.1265,0,0,0,0,0,0,0,0,0,0,0,0,0,2.1298,2.1298,2.1293,2.1293,2.1293,2.1286,2.1286,2.1286,2.1273,2.1273,2.1273,2.1273,2.1265,2.1265,2.1265,0,0,0,0,0,0,0,0,0,0,0,0,0,2.1294,2.1298,2.1293,2.1286,2.1286,2.1286,2.1286,2.1285,2.1274,2.1273,2.1273,2.1273,2.1265,2.1265,2.1265,2.1272,0,0,2.1265,2.1265,0,0,0,0,0,0,0,0,2.1294,2.1293,2.1287,2.1287,2.1286,2.128,2.1284,2.1281,2.1274,2.1278,2.1273,2.1272,2.127,2.127,2.1269,2.1271,2.1271,2.1265,2.1265,2.1265,2.1265,0,0,0,0,0,0,0,2.1294,2.1294,2.129,2.1287,2.1286,2.1283,2.1283,2.1284,2.1276,2.1278,2.1277,2.1276,2.127,2.1269,2.1269,2.1271,2.1265,2.1265,2.1265,2.1265,2.1277,2.1278,0,0,0,0,0,0,2.1295,2.1294,2.1291,2.129,2.1289,2.1284,2.1283,2.1282,2.1276,2.1275,2.1276,2.1275,2.1269,2.1269,2.1269,2.1275,2.1265,2.1265,2.1265,2.1277,2.1278,2.1278,0,0,0,0,0,0,2.1296,2.1295,2.1291,2.1292,2.1291,2.1284,2.1284,2.1282,2.1282,2.1275,2.1274,2.1277,2.1269,2.1269,2.1271,2.1275,2.1265,2.1265,2.1277,2.1277,2.1278,2.1289,0,0,0,0,0,0,2.1296,2.1295,2.1298,2.1292,2.1291,2.1293,2.1284,2.1282,2.1282,2.1281,2.1275,2.1274,2.1269,2.1271,2.1271,2.1275,2.1265,2.1276,2.1277,2.1278,2.1288,2.129,2.1292,0,0,0,0,0,2.1296,2.1301,2.1298,2.1298,2.1294,2.1293,2.1293,2.1287,2.1282,2.1284,2.128,2.1274,2.1275,2.1271,2.1271,2.1275,2.1276,2.1277,2.1278,2.1288,2.129,2.1291,0,0,0,0,0,0,2.1308,2.13,2.1296,2.13,2.1298,2.1291,2.1294,2.1289,2.1288,2.1287,2.1279,2.1278,2.1281,2.1278,2.1275,2.1281,2.1274,2.1275,2.1282,2.1284,2.1286,2.1286,2.1265,0,0,0,0,0,2.1311,2.1311,2.1305,2.1309,2.1308,2.1301,2.1301,2.1296,2.1293,2.1292,2.1288,2.1285,2.1285,2.1284,2.1284,2.1288,2.1287,2.1291,2.1293,2.1294,2.1294,2.1296,2.1298,2.128,2.128,2.128,0,0,2.1317,2.1313,2.1314,2.1311,2.1308,2.1309,2.13,2.1301,2.1301,2.1292,2.1294,2.1291,2.1287,2.1291,2.1292,2.1289,2.1299,2.1295,2.1296,2.1296,2.1297,2.1299,2.13,2.1281,2.1281,2.1281,0,0,2.1328,2.1326,2.1328,2.1326,2.1322,2.1318,2.1319,2.1313,2.1311,2.1313,2.1306,2.1306,2.1305,2.1303,2.1302,2.1312,2.1307,2.1313,2.132,2.1322,2.1323,2.1324,2.1328,2.1329,2.1313,2.1313,2.1313,0,2.1337,2.1337,2.1331,2.1332,2.1331,2.1322,2.1325,2.1323,2.1319,2.1319,2.1315,2.1314,2.1311,2.1313,2.1316,2.1316,2.1316,2.1313,2.1324,2.1325,2.1326,2.1329,2.133,2.1314,2.1314,2.1314,2.1314,0,2.1347,2.1347,2.135,2.1346,2.1346,2.1348,2.1341,2.1341,2.1337,2.1333,2.1335,2.1331,2.1329,2.133,2.1326,2.1332,2.133,2.1325,2.1318,2.1328,2.1331,2.1332,2.1315,2.1315,2.1314,2.1314,0,0,2.1365,2.1358,2.1359,2.1357,2.1352,2.1352,2.1354,2.1352,2.1352,2.135,2.1351,2.1351,2.1346,2.1345,2.1341,2.1342,2.135,2.1337,2.1337,2.1339,2.1356,2.1359,2.1361,2.1347,2.1347,2.1348,2.1356,0,2.1374,2.1377,2.1371,2.1375,2.1375,2.1367,2.1369,2.1366,2.1363,2.1362,2.1358,2.1358,2.1353,2.1352,2.1353,2.1349,2.1354,2.1349,2.1348,2.1348,2.1348,2.1362,2.1365,2.1374,2.1357,2.1358,2.1358,0,2.1386,2.1384,2.1388,2.1383,2.1383,2.1384,2.1382,2.1382,2.1378,2.1376,2.1374,2.1369,2.1371,2.1365,2.1366,2.1363,2.1362,2.136,2.136,2.1359,2.1353,2.1361,2.1377,2.1378,2.136,2.1359,2.1359,0,2.1398,2.1396,2.1398,2.1397,2.1391,2.1392,2.139,2.1387,2.1386,2.1384,2.1384,2.1382,2.1381,2.138,2.1375,2.1371,2.1377,2.137,2.1374,2.1374,2.1375,2.1375,2.139,2.1376,2.1376,2.1376,2.1376,0,2.1409,2.1411,2.1403,2.1404,2.1407,2.14,2.1403,2.14,2.1397,2.1397,2.1391,2.1392,2.1385,2.1385,2.138,2.1382,2.1382,2.1379,2.1378,2.1379,2.138,2.1378,2.1377,2.1376,2.1376,2.1376,2.1376,0,2.1422,2.1417,2.1418,2.1413,2.1412,2.1414,2.1409,2.141,2.1406,2.1407,2.1406,2.1401,2.14,2.1395,2.1393,2.139,2.1393,2.1391,2.1394,2.1393,2.1397,2.1396,2.1411,2.1412,2.1398,2.1398,2.1398,0,2.1428,2.143,2.1425,2.1425,2.1423,2.1423,2.1422,2.1416,2.1415,2.1412,2.1413,2.1412,2.1411,2.141,2.1406,2.1404,2.1402,2.1407,2.1401,2.1402,2.1401,2.14,2.14,2.1408,2.1408,2.1408,2.1408,0,2.1441,2.1438,2.1438,2.1436,2.1435,2.1433,2.1431,2.1432,2.1425,2.1425,2.1424,2.1423,2.1421,2.142,2.1418,2.1416,2.1411,2.141,2.1411,2.1412,2.1413,2.1412,2.1396,2.141,2.1409,2.1409,2.1409,2.1409,2.145,2.1451,2.1448,2.1447,2.1445,2.1443,2.1444,2.144,2.144,2.1438,2.1434,2.1434,2.1431,2.1428,2.1426,2.1425,2.1422,2.1424,2.1424,2.1424,2.1424,2.1414,2.1425,2.1425,2.1425,2.1425,2.1425,0,2.1462,2.146,2.1459,2.1456,2.1456,2.1452,2.1449,2.1449,2.1449,2.1446,2.1445,2.1444,2.1443,2.1439,2.1437,2.1438,2.1435,2.1437,2.1437,2.1436,2.1427,2.1427,2.1439,2.1439,2.1439,2.1439,2.1439,2.1439,2.1468,2.1469,2.1466,2.1466,2.1464,2.1464,2.1463,2.1461,2.1459,2.1458,2.1457,2.1455,2.1451,2.145,2.1448,2.1447,2.1447,2.1449,2.1447,2.1438,2.1437,2.1436,2.1435,2.1449,2.1449,2.1456,2.1456,2.1456]}]]